Location: Devore Heights
(34.2372°N, 117.4156°W)
Time: 13:45:12
(UTC+00:00)

Vanguard 1 - Visible Passes

Search period start: 13 September 2024 00:00
Search period end: 23 September 2024 00:00
Orbit: 649 x 3825 km, 34.2° (Epoch: 11 September)

Date Brightness Start Highest point End Pass type
(mag) Time Alt. Az. Time Alt. Az. Time Alt. Az.
14 Sep 10.8 02:19:31 10° W 02:23:22 27° SSW 02:27:15 10° SSE visible
15 Sep 11.4 02:39:57 10° WSW 02:42:59 18° SSW 02:46:04 10° SSE visible
16 Sep 11.8 03:01:40 10° SW 03:02:34 10° SSW 03:03:28 10° SSW visible
